Year,Month,Day,Hour,Minute,Value (Times are PST for temperature in C)
2007,05,31,00,00,17.20
2007,05,31,00,01,17.20
2007,05,31,00,02,17.20
2007,05,31,00,03,17.20
2007,05,31,00,04,17.20
2007,05,31,00,05,17.20
2007,05,31,00,06,17.20
2007,05,31,00,07,17.20
2007,05,31,00,08,17.20
2007,05,31,00,09,17.20
2007,05,31,00,10,17.20
2007,05,31,00,11,17.20
2007,05,31,00,12,17.20
2007,05,31,00,13,17.20
2007,05,31,00,14,17.30
2007,05,31,00,15,17.30
2007,05,31,00,16,17.40
2007,05,31,00,17,17.40
2007,05,31,00,18,17.40
2007,05,31,00,19,17.40
2007,05,31,00,20,17.50
2007,05,31,00,21,17.50
2007,05,31,00,22,17.50
2007,05,31,00,23,17.60
2007,05,31,00,24,17.60
2007,05,31,00,25,17.60
2007,05,31,00,26,17.60
2007,05,31,00,27,17.60
2007,05,31,00,28,17.60
2007,05,31,00,29,17.60
2007,05,31,00,30,17.60
2007,05,31,00,31,17.60
2007,05,31,00,32,17.50
2007,05,31,00,33,17.40
2007,05,31,00,34,17.40
2007,05,31,00,35,17.40
2007,05,31,00,36,17.30
2007,05,31,00,37,17.30
2007,05,31,00,38,17.30
2007,05,31,00,39,17.30
2007,05,31,00,40,17.30
2007,05,31,00,41,17.20
2007,05,31,00,42,17.20
2007,05,31,00,43,17.10
2007,05,31,00,44,17.10
2007,05,31,00,45,17.00
2007,05,31,00,46,16.90
2007,05,31,00,47,16.90
2007,05,31,00,48,16.80
2007,05,31,00,49,16.80
2007,05,31,00,50,16.80
2007,05,31,00,51,16.80
2007,05,31,00,52,16.80
2007,05,31,00,53,16.80
2007,05,31,00,54,16.80
2007,05,31,00,55,16.80
2007,05,31,00,56,16.70
2007,05,31,00,57,16.80
2007,05,31,00,58,16.80
2007,05,31,00,59,16.80
2007,05,31,01,00,16.90
2007,05,31,01,01,16.90
2007,05,31,01,02,16.90
2007,05,31,01,03,16.90
2007,05,31,01,04,16.90
2007,05,31,01,05,16.90
2007,05,31,01,06,16.90
2007,05,31,01,07,16.90
2007,05,31,01,08,16.80
2007,05,31,01,09,16.80
2007,05,31,01,10,16.70
2007,05,31,01,11,16.70
2007,05,31,01,12,16.70
2007,05,31,01,13,16.60
2007,05,31,01,14,16.60
2007,05,31,01,15,16.40
2007,05,31,01,16,16.30
2007,05,31,01,17,16.10
2007,05,31,01,18,16.00
2007,05,31,01,19,15.90
2007,05,31,01,20,15.80
2007,05,31,01,21,15.80
2007,05,31,01,22,15.80
2007,05,31,01,23,15.80
2007,05,31,01,24,15.90
2007,05,31,01,25,16.00
2007,05,31,01,26,16.00
2007,05,31,01,27,16.10
2007,05,31,01,28,16.10
2007,05,31,01,29,16.10
2007,05,31,01,30,16.10
2007,05,31,01,31,16.10
2007,05,31,01,32,16.10
2007,05,31,01,33,16.10
2007,05,31,01,34,16.10
2007,05,31,01,35,16.10
2007,05,31,01,36,16.10
2007,05,31,01,37,16.00
2007,05,31,01,38,15.80
2007,05,31,01,39,15.70
2007,05,31,01,40,15.60
2007,05,31,01,41,15.60
2007,05,31,01,42,15.50
2007,05,31,01,43,15.50
2007,05,31,01,44,15.40
2007,05,31,01,45,15.40
2007,05,31,01,46,15.40
2007,05,31,01,47,15.40
2007,05,31,01,48,15.30
2007,05,31,01,49,15.30
2007,05,31,01,50,15.30
2007,05,31,01,51,15.30
2007,05,31,01,52,15.20
2007,05,31,01,53,15.20
2007,05,31,01,54,15.10
2007,05,31,01,55,15.10
2007,05,31,01,56,15.10
2007,05,31,01,57,15.10
2007,05,31,01,58,15.10
2007,05,31,01,59,15.20
2007,05,31,02,00,15.20
2007,05,31,02,01,15.20
2007,05,31,02,02,15.30
2007,05,31,02,03,15.30
2007,05,31,02,04,15.20
2007,05,31,02,05,15.20
2007,05,31,02,06,15.10
2007,05,31,02,07,15.10
2007,05,31,02,08,15.00
2007,05,31,02,09,15.00
2007,05,31,02,10,15.00
2007,05,31,02,11,15.00
2007,05,31,02,12,15.00
2007,05,31,02,13,15.00
2007,05,31,02,14,15.00
2007,05,31,02,15,15.00
2007,05,31,02,16,15.00
2007,05,31,02,17,15.00
2007,05,31,02,18,15.00
2007,05,31,02,19,15.00
2007,05,31,02,20,15.00
2007,05,31,02,21,15.10
2007,05,31,02,22,15.20
2007,05,31,02,23,15.20
2007,05,31,02,24,15.30
2007,05,31,02,25,15.30
2007,05,31,02,26,15.30
2007,05,31,02,27,15.40
2007,05,31,02,28,15.40
2007,05,31,02,29,15.40
2007,05,31,02,30,15.50
2007,05,31,02,31,15.50
2007,05,31,02,32,15.60
2007,05,31,02,33,15.60
2007,05,31,02,34,15.70
2007,05,31,02,35,15.70
2007,05,31,02,36,15.70
2007,05,31,02,37,15.70
2007,05,31,02,38,15.70
2007,05,31,02,39,15.70
2007,05,31,02,40,15.70
2007,05,31,02,41,15.70
2007,05,31,02,42,15.70
2007,05,31,02,43,15.70
2007,05,31,02,44,15.60
2007,05,31,02,45,15.60
2007,05,31,02,46,15.60
2007,05,31,02,47,15.50
2007,05,31,02,48,15.50
2007,05,31,02,49,15.40
2007,05,31,02,50,15.40
2007,05,31,02,51,15.30
2007,05,31,02,52,15.30
2007,05,31,02,53,15.20
2007,05,31,02,54,15.10
2007,05,31,02,55,15.00
2007,05,31,02,56,15.00
2007,05,31,02,57,15.00
2007,05,31,02,58,15.00
2007,05,31,02,59,15.00
2007,05,31,03,00,15.00
2007,05,31,03,01,15.00
2007,05,31,03,02,15.00
2007,05,31,03,03,14.90
2007,05,31,03,04,14.90
2007,05,31,03,05,14.90
2007,05,31,03,06,14.90
2007,05,31,03,07,14.80
2007,05,31,03,08,14.90
2007,05,31,03,09,14.90
2007,05,31,03,10,15.00
2007,05,31,03,11,15.10
2007,05,31,03,12,15.30
2007,05,31,03,13,15.40
2007,05,31,03,14,15.50
2007,05,31,03,15,15.50
2007,05,31,03,16,15.60
2007,05,31,03,17,15.60
2007,05,31,03,18,15.60
2007,05,31,03,19,15.50
2007,05,31,03,20,15.50
2007,05,31,03,21,15.40
2007,05,31,03,22,15.30
2007,05,31,03,23,15.30
2007,05,31,03,24,15.20
2007,05,31,03,25,15.20
2007,05,31,03,26,15.10
2007,05,31,03,27,15.10
2007,05,31,03,28,15.10
2007,05,31,03,29,15.20
2007,05,31,03,30,15.20
2007,05,31,03,31,15.20
2007,05,31,03,32,15.20
2007,05,31,03,33,15.20
2007,05,31,03,34,15.20
2007,05,31,03,35,15.30
2007,05,31,03,36,15.30
2007,05,31,03,37,15.30
2007,05,31,03,38,15.40
2007,05,31,03,39,15.40
2007,05,31,03,40,15.50
2007,05,31,03,41,15.50
2007,05,31,03,42,15.50
2007,05,31,03,43,15.60
2007,05,31,03,44,15.60
2007,05,31,03,45,15.70
2007,05,31,03,46,15.70
2007,05,31,03,47,15.80
2007,05,31,03,48,15.90
2007,05,31,03,49,15.90
2007,05,31,03,50,16.00
2007,05,31,03,51,16.10
2007,05,31,03,52,16.20
2007,05,31,03,53,16.20
2007,05,31,03,54,16.20
2007,05,31,03,55,16.30
2007,05,31,03,56,16.30
2007,05,31,03,57,16.30
2007,05,31,03,58,16.30
2007,05,31,03,59,16.30
2007,05,31,04,00,16.30
2007,05,31,04,01,16.30
2007,05,31,04,02,16.30
2007,05,31,04,03,16.20
2007,05,31,04,04,16.20
2007,05,31,04,05,16.20
2007,05,31,04,06,16.20
2007,05,31,04,07,16.10
2007,05,31,04,08,16.10
2007,05,31,04,09,16.10
2007,05,31,04,10,16.10
2007,05,31,04,11,16.10
2007,05,31,04,12,16.10
2007,05,31,04,13,16.10
2007,05,31,04,14,16.00
2007,05,31,04,15,16.00
2007,05,31,04,16,16.00
2007,05,31,04,17,16.00
2007,05,31,04,18,15.90
2007,05,31,04,19,15.90
2007,05,31,04,20,15.80
2007,05,31,04,21,15.70
2007,05,31,04,22,15.60
2007,05,31,04,23,15.40
2007,05,31,04,24,15.20
2007,05,31,04,25,15.00
2007,05,31,04,26,14.90
2007,05,31,04,27,14.80
2007,05,31,04,28,14.70
2007,05,31,04,29,14.60
2007,05,31,04,30,14.50
2007,05,31,04,31,14.40
2007,05,31,04,32,14.30
2007,05,31,04,33,14.30
2007,05,31,04,34,14.20
2007,05,31,04,35,14.10
2007,05,31,04,36,14.00
2007,05,31,04,37,14.00
2007,05,31,04,38,13.90
2007,05,31,04,39,13.80
2007,05,31,04,40,13.80
2007,05,31,04,41,13.70
2007,05,31,04,42,13.70
2007,05,31,04,43,13.60
2007,05,31,04,44,13.60
2007,05,31,04,45,13.60
2007,05,31,04,46,13.50
2007,05,31,04,47,13.50
2007,05,31,04,48,13.40
2007,05,31,04,49,13.40
2007,05,31,04,50,13.40
2007,05,31,04,51,13.30
2007,05,31,04,52,13.30
2007,05,31,04,53,13.30
2007,05,31,04,54,13.30
2007,05,31,04,55,13.30
2007,05,31,04,56,13.30
2007,05,31,04,57,13.30
2007,05,31,04,58,13.30
2007,05,31,04,59,13.30
2007,05,31,05,00,13.30
2007,05,31,05,01,13.30
2007,05,31,05,02,13.30
2007,05,31,05,03,13.30
2007,05,31,05,04,13.30
2007,05,31,05,05,13.30
2007,05,31,05,06,13.30
2007,05,31,05,07,13.30
2007,05,31,05,08,13.30
2007,05,31,05,09,13.30
2007,05,31,05,10,13.30
2007,05,31,05,11,13.30
2007,05,31,05,12,13.30
2007,05,31,05,13,13.30
2007,05,31,05,14,13.30
2007,05,31,05,15,13.40
2007,05,31,05,16,13.40
2007,05,31,05,17,13.50
2007,05,31,05,18,13.50
2007,05,31,05,19,13.60
2007,05,31,05,20,13.60
2007,05,31,05,21,13.70
2007,05,31,05,22,13.70
2007,05,31,05,23,13.80
2007,05,31,05,24,13.80
2007,05,31,05,25,13.90
2007,05,31,05,26,13.90
2007,05,31,05,27,14.00
2007,05,31,05,28,14.00
2007,05,31,05,29,14.10
2007,05,31,05,30,14.10
2007,05,31,05,31,14.10
2007,05,31,05,32,14.10
2007,05,31,05,33,14.10
2007,05,31,05,34,14.20
2007,05,31,05,35,14.20
2007,05,31,05,36,14.20
2007,05,31,05,37,14.20
2007,05,31,05,38,14.20
2007,05,31,05,39,14.30
2007,05,31,05,40,14.30
2007,05,31,05,41,14.30
2007,05,31,05,42,14.30
2007,05,31,05,43,14.30
2007,05,31,05,44,14.40
2007,05,31,05,45,14.40
2007,05,31,05,46,14.50
2007,05,31,05,47,14.50
2007,05,31,05,48,14.60
2007,05,31,05,49,14.70
2007,05,31,05,50,14.80
2007,05,31,05,51,14.80
2007,05,31,05,52,15.00
2007,05,31,05,53,15.00
2007,05,31,05,54,15.00
2007,05,31,05,55,15.00
2007,05,31,05,56,15.10
2007,05,31,05,57,15.20
2007,05,31,05,58,15.30
2007,05,31,05,59,15.30
2007,05,31,06,00,15.40
2007,05,31,06,01,15.40
2007,05,31,06,02,15.40
2007,05,31,06,03,15.40
2007,05,31,06,04,15.40
2007,05,31,06,05,15.40
2007,05,31,06,06,15.40
2007,05,31,06,07,15.40
2007,05,31,06,08,15.30
2007,05,31,06,09,15.30
2007,05,31,06,10,15.30
2007,05,31,06,11,15.20
2007,05,31,06,12,15.20
2007,05,31,06,13,15.10
2007,05,31,06,14,15.10
2007,05,31,06,15,15.00
2007,05,31,06,16,15.00
2007,05,31,06,17,15.00
2007,05,31,06,18,15.00
2007,05,31,06,19,15.00
2007,05,31,06,20,15.00
2007,05,31,06,21,15.00
2007,05,31,06,22,15.10
2007,05,31,06,23,15.20
2007,05,31,06,24,15.20
2007,05,31,06,25,15.20
2007,05,31,06,26,15.30
2007,05,31,06,27,15.30
2007,05,31,06,28,15.30
2007,05,31,06,29,15.40
2007,05,31,06,30,15.40
2007,05,31,06,31,15.50
2007,05,31,06,32,15.60
2007,05,31,06,33,15.60
2007,05,31,06,34,15.70
2007,05,31,06,35,15.70
2007,05,31,06,36,15.80
2007,05,31,06,37,15.80
2007,05,31,06,38,15.80
2007,05,31,06,39,15.90
2007,05,31,06,40,15.90
2007,05,31,06,41,16.00
2007,05,31,06,42,16.00
2007,05,31,06,43,16.10
2007,05,31,06,44,16.10
2007,05,31,06,45,16.20
2007,05,31,06,46,16.20
2007,05,31,06,47,16.20
2007,05,31,06,48,16.20
2007,05,31,06,49,16.20
2007,05,31,06,50,16.20
2007,05,31,06,51,16.20
2007,05,31,06,52,16.20
2007,05,31,06,53,16.30
2007,05,31,06,54,16.30
2007,05,31,06,55,16.30
2007,05,31,06,56,16.30
2007,05,31,06,57,16.30
2007,05,31,06,58,16.30
2007,05,31,06,59,16.40
2007,05,31,07,00,16.40
2007,05,31,07,01,16.40
2007,05,31,07,02,16.40
2007,05,31,07,03,16.40
2007,05,31,07,04,16.50
2007,05,31,07,05,16.50
2007,05,31,07,06,16.50
2007,05,31,07,07,16.60
2007,05,31,07,08,16.60
2007,05,31,07,09,16.70
2007,05,31,07,10,16.70
2007,05,31,07,11,16.80
2007,05,31,07,12,16.90
2007,05,31,07,13,17.00
2007,05,31,07,14,17.10
2007,05,31,07,15,17.10
2007,05,31,07,16,17.10
2007,05,31,07,17,17.20
2007,05,31,07,18,17.20
2007,05,31,07,19,17.30
2007,05,31,07,20,17.30
2007,05,31,07,21,17.30
2007,05,31,07,22,17.30
2007,05,31,07,23,17.30
2007,05,31,07,24,17.30
2007,05,31,07,25,17.30
2007,05,31,07,26,17.30
2007,05,31,07,27,17.30
2007,05,31,07,28,17.30
2007,05,31,07,29,17.20
2007,05,31,07,30,17.20
2007,05,31,07,31,17.10
2007,05,31,07,32,17.10
2007,05,31,07,33,17.10
2007,05,31,07,34,17.00
2007,05,31,07,35,17.10
2007,05,31,07,36,17.10
2007,05,31,07,37,17.20
2007,05,31,07,38,17.30
2007,05,31,07,39,17.30
2007,05,31,07,40,17.40
2007,05,31,07,41,17.40
2007,05,31,07,42,17.40
2007,05,31,07,43,17.40
2007,05,31,07,44,17.50
2007,05,31,07,45,17.60
2007,05,31,07,46,17.60
2007,05,31,07,47,17.60
2007,05,31,07,48,17.60
2007,05,31,07,49,17.60
2007,05,31,07,50,17.60
2007,05,31,07,51,17.70
2007,05,31,07,52,17.70
2007,05,31,07,53,17.70
2007,05,31,07,54,17.70
2007,05,31,07,55,17.70
2007,05,31,07,56,17.60
2007,05,31,07,57,17.50
2007,05,31,07,58,17.40
2007,05,31,07,59,17.40
2007,05,31,08,00,17.50
2007,05,31,08,01,17.40
2007,05,31,08,02,17.50
2007,05,31,08,03,17.50
2007,05,31,08,04,17.60
2007,05,31,08,05,17.70
2007,05,31,08,06,17.80
2007,05,31,08,07,17.80
2007,05,31,08,08,17.90
2007,05,31,08,09,17.90
2007,05,31,08,10,17.80
2007,05,31,08,11,17.70
2007,05,31,08,12,17.60
2007,05,31,08,13,17.50
2007,05,31,08,14,17.50
2007,05,31,08,15,17.40
2007,05,31,08,16,17.20
2007,05,31,08,17,17.10
2007,05,31,08,18,17.00
2007,05,31,08,19,16.90
2007,05,31,08,20,16.80
2007,05,31,08,21,16.80
2007,05,31,08,22,16.80
2007,05,31,08,23,16.80
2007,05,31,08,24,16.70
2007,05,31,08,25,16.70
2007,05,31,08,26,16.70
2007,05,31,08,27,16.60
2007,05,31,08,28,16.60
2007,05,31,08,29,16.60
2007,05,31,08,30,16.60
2007,05,31,08,31,16.60
2007,05,31,08,32,16.70
2007,05,31,08,33,16.70
2007,05,31,08,34,16.70
2007,05,31,08,35,16.80
2007,05,31,08,36,16.80
2007,05,31,08,37,16.80
2007,05,31,08,38,16.80
2007,05,31,08,39,16.70
2007,05,31,08,40,16.70
2007,05,31,08,41,16.80
2007,05,31,08,42,16.90
2007,05,31,08,43,16.90
2007,05,31,08,44,17.00
2007,05,31,08,45,17.00
2007,05,31,08,46,17.10
2007,05,31,08,47,17.20
2007,05,31,08,48,17.20
2007,05,31,08,49,17.30
2007,05,31,08,50,17.30
2007,05,31,08,51,17.40
2007,05,31,08,52,17.40
2007,05,31,08,53,17.40
2007,05,31,08,54,17.40
2007,05,31,08,55,17.40
2007,05,31,08,56,17.40
2007,05,31,08,57,17.40
2007,05,31,08,58,17.40
2007,05,31,08,59,17.40
2007,05,31,09,00,17.40
2007,05,31,09,01,17.50
2007,05,31,09,02,17.60
2007,05,31,09,03,17.70
2007,05,31,09,04,17.70
2007,05,31,09,05,17.80
2007,05,31,09,06,17.70
2007,05,31,09,07,17.70
2007,05,31,09,08,17.70
2007,05,31,09,09,17.80
2007,05,31,09,10,17.90
2007,05,31,09,11,17.90
2007,05,31,09,12,17.90
2007,05,31,09,13,17.80
2007,05,31,09,14,17.70
2007,05,31,09,15,17.70
2007,05,31,09,16,17.70
2007,05,31,09,17,17.70
2007,05,31,09,18,17.60
2007,05,31,09,19,17.60
2007,05,31,09,20,17.50
2007,05,31,09,21,17.40
2007,05,31,09,22,17.40
2007,05,31,09,23,17.40
2007,05,31,09,24,17.50
2007,05,31,09,25,17.50
2007,05,31,09,26,17.40
2007,05,31,09,27,17.40
2007,05,31,09,28,17.40
2007,05,31,09,29,17.50
2007,05,31,09,30,17.50
2007,05,31,09,31,17.50
2007,05,31,09,32,17.50
2007,05,31,09,33,17.50
2007,05,31,09,34,17.50
2007,05,31,09,35,17.60
2007,05,31,09,36,17.70
2007,05,31,09,37,17.80
2007,05,31,09,38,17.80
2007,05,31,09,39,17.90
2007,05,31,09,40,17.90
2007,05,31,09,41,17.90
2007,05,31,09,42,17.80
2007,05,31,09,43,17.70
2007,05,31,09,44,17.70
2007,05,31,09,45,17.70
2007,05,31,09,46,17.70
2007,05,31,09,47,17.70
2007,05,31,09,48,17.80
2007,05,31,09,49,17.90
2007,05,31,09,50,17.90
2007,05,31,09,51,17.90
2007,05,31,09,52,17.90
2007,05,31,09,53,17.90
2007,05,31,09,54,18.00
2007,05,31,09,55,17.90
2007,05,31,09,56,17.80
2007,05,31,09,57,17.80
2007,05,31,09,58,17.80
2007,05,31,09,59,17.80
2007,05,31,10,00,17.80
2007,05,31,10,01,17.80
2007,05,31,10,02,17.80
2007,05,31,10,03,17.70
2007,05,31,10,04,17.70
2007,05,31,10,05,17.60
2007,05,31,10,06,17.60
2007,05,31,10,07,17.50
2007,05,31,10,08,17.40
2007,05,31,10,09,17.40
2007,05,31,10,10,17.40
2007,05,31,10,11,17.40
2007,05,31,10,12,17.50
2007,05,31,10,13,17.50
2007,05,31,10,14,17.60
2007,05,31,10,15,17.70
2007,05,31,10,16,17.70
2007,05,31,10,17,17.60
2007,05,31,10,18,17.50
2007,05,31,10,19,17.50
2007,05,31,10,20,17.50
2007,05,31,10,21,17.50
2007,05,31,10,22,17.50
2007,05,31,10,23,17.50
2007,05,31,10,24,17.50
2007,05,31,10,25,17.60
2007,05,31,10,26,17.60
2007,05,31,10,27,17.70
2007,05,31,10,28,17.70
2007,05,31,10,29,17.70
2007,05,31,10,30,17.70
2007,05,31,10,31,17.80
2007,05,31,10,32,17.90
2007,05,31,10,33,18.00
2007,05,31,10,34,18.10
2007,05,31,10,35,18.10
2007,05,31,10,36,18.20
2007,05,31,10,37,18.20
2007,05,31,10,38,18.30
2007,05,31,10,39,18.30
2007,05,31,10,40,18.30
2007,05,31,10,41,18.30
2007,05,31,10,42,18.30
2007,05,31,10,43,18.20
2007,05,31,10,44,18.20
2007,05,31,10,45,18.20
2007,05,31,10,46,18.20
2007,05,31,10,47,18.20
2007,05,31,10,48,18.20
2007,05,31,10,49,18.30
2007,05,31,10,50,18.30
2007,05,31,10,51,18.30
2007,05,31,10,52,18.30
2007,05,31,10,53,18.40
2007,05,31,10,54,18.40
2007,05,31,10,55,18.50
2007,05,31,10,56,18.60
2007,05,31,10,57,18.70
2007,05,31,10,58,18.80
2007,05,31,10,59,18.80
2007,05,31,11,00,18.70
2007,05,31,11,01,18.70
2007,05,31,11,02,18.60
2007,05,31,11,03,18.60
2007,05,31,11,04,18.50
2007,05,31,11,05,18.40
2007,05,31,11,06,18.40
2007,05,31,11,07,18.40
2007,05,31,11,08,18.40
2007,05,31,11,09,18.30
2007,05,31,11,10,18.30
2007,05,31,11,11,18.30
2007,05,31,11,12,18.40
2007,05,31,11,13,18.40
2007,05,31,11,14,18.40
2007,05,31,11,15,18.40
2007,05,31,11,16,18.40
2007,05,31,11,17,18.40
2007,05,31,11,18,18.40
2007,05,31,11,19,18.40
2007,05,31,11,20,18.50
2007,05,31,11,21,18.60
2007,05,31,11,22,18.70
2007,05,31,11,23,18.70
2007,05,31,11,24,18.70
2007,05,31,11,25,18.60
2007,05,31,11,26,18.50
2007,05,31,11,27,18.40
2007,05,31,11,28,18.40
2007,05,31,11,29,18.40
2007,05,31,11,30,18.40
2007,05,31,11,31,18.40
2007,05,31,11,32,18.50
2007,05,31,11,33,18.50
2007,05,31,11,34,18.50
2007,05,31,11,35,18.60
2007,05,31,11,36,18.70
2007,05,31,11,37,18.80
2007,05,31,11,38,19.00
2007,05,31,11,39,19.10
2007,05,31,11,40,19.20
2007,05,31,11,41,19.20
2007,05,31,11,42,19.20
2007,05,31,11,43,19.20
2007,05,31,11,44,19.20
2007,05,31,11,45,19.40
2007,05,31,11,46,19.50
2007,05,31,11,47,19.60
2007,05,31,11,48,19.70
2007,05,31,11,49,19.80
2007,05,31,11,50,19.90
2007,05,31,11,51,20.00
2007,05,31,11,52,20.10
2007,05,31,11,53,20.20
2007,05,31,11,54,20.20
2007,05,31,11,55,20.10
2007,05,31,11,56,20.00
2007,05,31,11,57,19.90
2007,05,31,11,58,20.00
2007,05,31,11,59,20.00
2007,05,31,12,00,20.00
2007,05,31,12,01,20.10
2007,05,31,12,02,20.10
2007,05,31,12,03,20.20
2007,05,31,12,04,20.20
2007,05,31,12,05,20.00
2007,05,31,12,06,19.80
2007,05,31,12,07,19.80
2007,05,31,12,08,19.80
2007,05,31,12,09,19.90
2007,05,31,12,10,19.80
2007,05,31,12,11,19.60
2007,05,31,12,12,19.50
2007,05,31,12,13,19.40
2007,05,31,12,14,19.40
2007,05,31,12,15,19.40
2007,05,31,12,16,19.30
2007,05,31,12,17,19.20
2007,05,31,12,18,19.20
2007,05,31,12,19,19.20
2007,05,31,12,20,19.30
2007,05,31,12,21,19.40
2007,05,31,12,22,19.40
2007,05,31,12,23,19.50
2007,05,31,12,24,19.50
2007,05,31,12,25,19.50
2007,05,31,12,26,19.50
2007,05,31,12,27,19.60
2007,05,31,12,28,19.70
2007,05,31,12,29,19.80
2007,05,31,12,30,19.80
2007,05,31,12,31,19.80
2007,05,31,12,32,19.80
2007,05,31,12,33,19.80
2007,05,31,12,34,19.80
2007,05,31,12,35,19.80
2007,05,31,12,36,20.00
2007,05,31,12,37,20.10
2007,05,31,12,38,20.10
2007,05,31,12,39,19.90
2007,05,31,12,40,19.80
2007,05,31,12,41,19.70
2007,05,31,12,42,19.60
2007,05,31,12,43,19.50
2007,05,31,12,44,19.50
2007,05,31,12,45,19.40
2007,05,31,12,46,19.40
2007,05,31,12,47,19.40
2007,05,31,12,48,19.50
2007,05,31,12,49,19.60
2007,05,31,12,50,19.60
2007,05,31,12,51,19.60
2007,05,31,12,52,19.60
2007,05,31,12,53,19.70
2007,05,31,12,54,19.70
2007,05,31,12,55,19.70
2007,05,31,12,56,19.80
2007,05,31,12,57,19.90
2007,05,31,12,58,19.90
2007,05,31,12,59,19.90
2007,05,31,13,00,19.80
2007,05,31,13,01,19.70
2007,05,31,13,02,19.60
2007,05,31,13,03,19.70
2007,05,31,13,04,19.80
2007,05,31,13,05,19.90
2007,05,31,13,06,20.10
2007,05,31,13,07,20.10
2007,05,31,13,08,20.10
2007,05,31,13,09,20.00
2007,05,31,13,10,20.00
2007,05,31,13,11,20.10
2007,05,31,13,12,20.10
2007,05,31,13,13,20.10
2007,05,31,13,14,20.20
2007,05,31,13,15,20.20
2007,05,31,13,16,20.30
2007,05,31,13,17,20.30
2007,05,31,13,18,20.30
2007,05,31,13,19,20.30
2007,05,31,13,20,20.20
2007,05,31,13,21,20.20
2007,05,31,13,22,20.00
2007,05,31,13,23,19.90
2007,05,31,13,24,19.80
2007,05,31,13,25,19.70
2007,05,31,13,26,19.70
2007,05,31,13,27,19.70
2007,05,31,13,28,19.80
2007,05,31,13,29,19.80
2007,05,31,13,30,19.70
2007,05,31,13,31,19.70
2007,05,31,13,32,19.70
2007,05,31,13,33,19.70
2007,05,31,13,34,19.70
2007,05,31,13,35,19.70
2007,05,31,13,36,19.80
2007,05,31,13,37,19.80
2007,05,31,13,38,19.90
2007,05,31,13,39,19.90
2007,05,31,13,40,20.00
2007,05,31,13,41,20.00
2007,05,31,13,42,20.10
2007,05,31,13,43,20.10
2007,05,31,13,44,20.10
2007,05,31,13,45,20.00
2007,05,31,13,46,20.00
2007,05,31,13,47,20.10
2007,05,31,13,48,20.10
2007,05,31,13,49,20.20
2007,05,31,13,50,20.20
2007,05,31,13,51,20.30
2007,05,31,13,52,20.30
2007,05,31,13,53,20.30
2007,05,31,13,54,20.30
2007,05,31,13,55,20.30
2007,05,31,13,56,20.20
2007,05,31,13,57,20.10
2007,05,31,13,58,19.90
2007,05,31,13,59,19.80
2007,05,31,14,00,19.80
2007,05,31,14,01,19.80
2007,05,31,14,02,19.70
2007,05,31,14,03,19.80
2007,05,31,14,04,19.80
2007,05,31,14,05,19.80
2007,05,31,14,06,19.80
2007,05,31,14,07,19.80
2007,05,31,14,08,19.80
2007,05,31,14,09,19.90
2007,05,31,14,10,20.00
2007,05,31,14,11,20.00
2007,05,31,14,12,20.00
2007,05,31,14,13,20.00
2007,05,31,14,14,20.00
2007,05,31,14,15,20.10
2007,05,31,14,16,20.10
2007,05,31,14,17,20.20
2007,05,31,14,18,20.20
2007,05,31,14,19,20.10
2007,05,31,14,20,20.20
2007,05,31,14,21,20.30
2007,05,31,14,22,20.30
2007,05,31,14,23,20.30
2007,05,31,14,24,20.30
2007,05,31,14,25,20.30
2007,05,31,14,26,20.30
2007,05,31,14,27,20.40
2007,05,31,14,28,20.50
2007,05,31,14,29,20.50
2007,05,31,14,30,20.50
2007,05,31,14,31,20.50
2007,05,31,14,32,20.50
2007,05,31,14,33,20.40
2007,05,31,14,34,20.30
2007,05,31,14,35,20.40
2007,05,31,14,36,20.40
2007,05,31,14,37,20.40
2007,05,31,14,38,20.30
2007,05,31,14,39,20.40
2007,05,31,14,40,20.40
2007,05,31,14,41,20.40
2007,05,31,14,42,20.40
2007,05,31,14,43,20.40
2007,05,31,14,44,20.50
2007,05,31,14,45,20.50
2007,05,31,14,46,20.40
2007,05,31,14,47,20.30
2007,05,31,14,48,20.30
2007,05,31,14,49,20.30
2007,05,31,14,50,20.30
2007,05,31,14,51,20.30
2007,05,31,14,52,20.20
2007,05,31,14,53,20.30
2007,05,31,14,54,20.40
2007,05,31,14,55,20.40
2007,05,31,14,56,20.50
2007,05,31,14,57,20.60
2007,05,31,14,58,20.60
2007,05,31,14,59,20.60
2007,05,31,15,00,20.70
2007,05,31,15,01,20.70
2007,05,31,15,02,20.60
2007,05,31,15,03,20.50
2007,05,31,15,04,20.40
2007,05,31,15,05,20.30
2007,05,31,15,06,20.30
2007,05,31,15,07,20.30
2007,05,31,15,08,20.30
2007,05,31,15,09,20.30
2007,05,31,15,10,20.40
2007,05,31,15,11,20.40
2007,05,31,15,12,20.50
2007,05,31,15,13,20.60
2007,05,31,15,14,20.60
2007,05,31,15,15,20.60
2007,05,31,15,16,20.60
2007,05,31,15,17,20.60
2007,05,31,15,18,20.60
2007,05,31,15,19,20.50
2007,05,31,15,20,20.50
2007,05,31,15,21,20.40
2007,05,31,15,22,20.40
2007,05,31,15,23,20.40
2007,05,31,15,24,20.30
2007,05,31,15,25,20.30
2007,05,31,15,26,20.20
2007,05,31,15,27,20.10
2007,05,31,15,28,20.10
2007,05,31,15,29,20.00
2007,05,31,15,30,19.90
2007,05,31,15,31,19.90
2007,05,31,15,32,19.90
2007,05,31,15,33,19.90
2007,05,31,15,34,19.90
2007,05,31,15,35,19.90
2007,05,31,15,36,20.00
2007,05,31,15,37,20.00
2007,05,31,15,38,20.10
2007,05,31,15,39,20.20
2007,05,31,15,40,20.20
2007,05,31,15,41,20.30
2007,05,31,15,42,20.40
2007,05,31,15,43,20.40
2007,05,31,15,44,20.40
2007,05,31,15,45,20.40
2007,05,31,15,46,20.50
2007,05,31,15,47,20.60
2007,05,31,15,48,20.70
2007,05,31,15,49,20.80
2007,05,31,15,50,20.90
2007,05,31,15,51,21.00
2007,05,31,15,52,21.00
2007,05,31,15,53,20.90
2007,05,31,15,54,20.80
2007,05,31,15,55,20.70
2007,05,31,15,56,20.70
2007,05,31,15,57,20.70
2007,05,31,15,58,20.70
2007,05,31,15,59,20.80
2007,05,31,16,00,20.90
2007,05,31,16,01,20.90
2007,05,31,16,02,20.90
2007,05,31,16,03,20.90
2007,05,31,16,04,20.80
2007,05,31,16,05,20.70
2007,05,31,16,06,20.70
2007,05,31,16,07,20.70
2007,05,31,16,08,20.70
2007,05,31,16,09,20.60
2007,05,31,16,10,20.50
2007,05,31,16,11,20.50
2007,05,31,16,12,20.50
2007,05,31,16,13,20.40
2007,05,31,16,14,20.30
2007,05,31,16,15,20.20
2007,05,31,16,16,20.10
2007,05,31,16,17,20.10
2007,05,31,16,18,20.00
2007,05,31,16,19,20.00
2007,05,31,16,20,19.90
2007,05,31,16,21,19.80
2007,05,31,16,22,19.80
2007,05,31,16,23,19.80
2007,05,31,16,24,19.90
2007,05,31,16,25,19.90
2007,05,31,16,26,20.00
2007,05,31,16,27,20.00
2007,05,31,16,28,20.10
2007,05,31,16,29,20.20
2007,05,31,16,30,20.20
2007,05,31,16,31,20.30
2007,05,31,16,32,20.30
2007,05,31,16,33,20.30
2007,05,31,16,34,20.30
2007,05,31,16,35,20.30
2007,05,31,16,36,20.30
2007,05,31,16,37,20.40
2007,05,31,16,38,20.40
2007,05,31,16,39,20.50
2007,05,31,16,40,20.50
2007,05,31,16,41,20.60
2007,05,31,16,42,20.70
2007,05,31,16,43,20.70
2007,05,31,16,44,20.80
2007,05,31,16,45,20.80
2007,05,31,16,46,20.80
2007,05,31,16,47,20.80
2007,05,31,16,48,20.80
2007,05,31,16,49,20.90
2007,05,31,16,50,20.90
2007,05,31,16,51,20.90
2007,05,31,16,52,21.00
2007,05,31,16,53,21.00
2007,05,31,16,54,21.10
2007,05,31,16,55,21.20
2007,05,31,16,56,21.20
2007,05,31,16,57,21.30
2007,05,31,16,58,21.30
2007,05,31,16,59,21.30
2007,05,31,17,00,21.40
2007,05,31,17,01,21.50
2007,05,31,17,02,21.50
2007,05,31,17,03,21.50
2007,05,31,17,04,21.50
2007,05,31,17,05,21.40
2007,05,31,17,06,21.40
2007,05,31,17,07,21.30
2007,05,31,17,08,21.20
2007,05,31,17,09,21.10
2007,05,31,17,10,21.10
2007,05,31,17,11,21.10
2007,05,31,17,12,21.10
2007,05,31,17,13,21.10
2007,05,31,17,14,21.10
2007,05,31,17,15,21.20
2007,05,31,17,16,21.20
2007,05,31,17,17,21.30
2007,05,31,17,18,21.30
2007,05,31,17,19,21.30